Stations météo

réclame
Mon MeteoGroup
South Uist Range, Grande-Bretagne (3023): Température de l'air & dewpoint: 27.05.2020 12:00:00 - 02.06.2020 12:00:00 (BST)South Uist Range, Grande-Bretagne (3023): Température de l'air -20cm & Température de l'air -100cm: 27.05.2020 12:00:00 - 02.06.2020 12:00:00 (BST)South Uist Range, Grande-Bretagne (3023): Vitesse du vent & gusts: 27.05.2020 12:00:00 - 02.06.2020 12:00:00 (BST)South Uist Range, Grande-Bretagne (3023): Direction du vent: 27.05.2020 12:00:00 - 02.06.2020 12:00:00 (BST)South Uist Range, Grande-Bretagne (3023): reduced air pressure: 27.05.2020 12:00:00 - 02.06.2020 12:00:00 (BST)South Uist Range, Grande-Bretagne (3023): visibility: 27.05.2020 12:00:00 - 02.06.2020 12:00:00 (BST)South Uist Range, Grande-Bretagne (3023): Quantités de précipitations: 27.05.2020 12:00:00 - 02.06.2020 12:00:00 (BST)
Date & Time tt [°C] td [°C] tt -20cm [°C] tt -100cm [°C] ff [km/h] ff [knt] fx [km/h] fx [knt] dd ppp [hPa] vv [km] rr [mm]
02.06.2020 12:00:00 - - - - - - - - - - - -
02.06.2020 11:00:00 12,8 11,1 - - 22 12 - - ENE 1021,5 20 -
02.06.2020 10:00:00 12,4 11,1 - - 21 11 - - ENE 1021,9 16 -
02.06.2020 09:00:00 12,2 11,3 - - 16 9 - - ENE 1022,2 13 -
02.06.2020 08:00:00 12,3 11,3 - - 13 7 - - E 1022,2 13 0,0
02.06.2020 07:00:00 12,2 11,3 - - 11 6 - - E 1022,2 12 0,0
02.06.2020 06:00:00 12,1 11,4 - - 8 4 - - E 1022,3 11 0,0
02.06.2020 05:00:00 12,0 11,1 - - 8 4 - - ENE 1022,6 12 0,0
02.06.2020 04:00:00 12,0 11,0 - - 8 4 - - ESE 1022,9 16 0,0
02.06.2020 03:00:00 12,8 11,1 - - 15 8 - - E 1023,1 23 0,0
02.06.2020 02:00:00 13,8 10,9 - - 13 7 - - E 1023,6 35 0,0
02.06.2020 01:00:00 13,6 10,9 - - 8 4 - - E 1024,3 35 0,0
02.06.2020 00:00:00 13,9 11,1 - - 8 4 - - E 1024,5 35 0,0
01.06.2020 23:00:00 13,7 11,7 - - 9 5 - - E 1024,4 30 0,0
01.06.2020 22:00:00 13,7 11,4 - - 9 5 - - ENE 1024,7 30 0,0
01.06.2020 21:00:00 13,7 11,4 - - 5 3 - - NW 1024,9 27 0,0
01.06.2020 20:00:00 13,8 10,8 - - 13 7 - - W 1024,9 30 0,0
01.06.2020 19:00:00 14,9 10,1 - - 9 5 - - SW 1024,7 35 0,0
01.06.2020 18:00:00 15,8 10,4 - - 8 4 - - WSW 1024,9 30 0,0
01.06.2020 17:00:00 16,2 10,8 - - 8 4 - - WSW 1025,2 40 0,0
01.06.2020 16:00:00 16,1 11,4 - - 18 10 - - SW 1025,3 35 0,0
01.06.2020 15:00:00 17,0 12,1 - - 22 12 - - WSW 1025,5 40 0,0
01.06.2020 14:00:00 18,1 11,6 - - 24 13 - - SSW 1025,6 45 0,0
01.06.2020 13:00:00 17,9 11,9 - - 24 13 - - SW 1025,7 45 0,0
01.06.2020 12:00:00 17,9 11,2 - - 21 11 - - SW 1025,7 50 0,0
01.06.2020 11:00:00 18,3 11,0 - - 22 12 - - SSW 1025,8 65 0,0
01.06.2020 10:00:00 18,0 10,2 13,7 10,7 18 10 - - S 1025,9 75 0,0
01.06.2020 09:00:00 17,1 9,4 - - 18 10 - - S 1025,8 70 0,0
01.06.2020 08:00:00 16,6 9,4 - - 13 7 - - SSW 1025,5 75 0,0
01.06.2020 07:00:00 14,5 9,0 - - 15 8 - - SSW 1025,1 70 0,0
01.06.2020 06:00:00 13,2 8,9 - - 13 7 - - S 1024,8 75 0,0
01.06.2020 05:00:00 12,4 7,7 - - 5 3 - - SSE 1024,5 75 0,0
01.06.2020 04:00:00 10,6 8,1 - - 2 1 - - W 1024,9 75 0,0
01.06.2020 03:00:00 11,1 9,4 - - 8 4 - - E 1024,8 50 0,0
01.06.2020 02:00:00 10,3 8,8 - - 5 3 - - E 1025,0 50 0,0
01.06.2020 01:00:00 12,1 10,5 - - 8 4 - - E 1025,2 40 0,0
01.06.2020 00:00:00 12,0 9,8 - - 8 4 - - E 1025,0 40 0,0
31.05.2020 23:00:00 13,7 7,9 - - 11 6 - - SSE 1024,6 75 0,0
31.05.2020 22:00:00 14,5 8,7 - - 16 9 - - SSW 1024,4 75 0,0
31.05.2020 21:00:00 17,0 8,7 - - 18 10 - - S 1023,9 75 0,0
31.05.2020 20:00:00 16,1 10,7 - - 21 11 - - SSW 1023,9 50 0,0
31.05.2020 19:00:00 19,6 9,6 - - 26 14 - - S 1023,7 75 0,0
31.05.2020 18:00:00 19,9 9,6 - - 28 15 - - S 1023,7 75 0,0
31.05.2020 17:00:00 19,8 8,7 - - 34 18 46 25 S 1024,0 70 0,0
31.05.2020 16:00:00 20,4 9,6 - - 29 16 46 25 S 1024,1 65 0,0
31.05.2020 15:00:00 19,7 8,5 - - 35 19 54 29 SSE 1024,1 75 0,0
31.05.2020 14:00:00 19,1 8,9 - - 42 23 61 33 SSE 1024,0 75 0,0
31.05.2020 13:00:00 18,3 8,1 - - 39 21 57 31 S 1023,9 75 0,0
31.05.2020 12:00:00 18,0 8,1 - - 42 23 59 32 SSE 1023,7 75 0,0
31.05.2020 11:00:00 17,7 9,0 - - 39 21 54 29 SSE 1023,5 65 0,0
31.05.2020 10:00:00 17,0 8,3 13,7 10,7 39 21 54 29 SSE 1023,3 75 0,0
31.05.2020 09:00:00 16,6 8,5 - - 37 20 50 27 SSE 1023,1 65 0,0
31.05.2020 08:00:00 15,8 8,5 - - 28 15 - - SE 1023,0 55 0,0
31.05.2020 07:00:00 15,4 7,8 - - 29 16 - - SSE 1022,6 70 0,0
31.05.2020 06:00:00 14,0 7,2 - - 21 11 - - ESE 1022,7 75 0,0
31.05.2020 05:00:00 14,3 6,9 - - 22 12 - - SE 1022,5 75 0,0
31.05.2020 04:00:00 14,7 6,9 - - 31 17 - - ESE 1022,3 75 0,0
31.05.2020 03:00:00 14,0 9,5 - - 28 15 - - E 1022,3 75 0,0
31.05.2020 02:00:00 14,6 9,7 - - 29 16 - - E 1022,3 75 0,0
31.05.2020 01:00:00 15,7 8,1 - - 13 7 - - SSE 1022,6 75 0,0
31.05.2020 00:00:00 13,0 8,5 - - 11 6 - - SE 1022,7 75 0,0
30.05.2020 23:00:00 14,5 9,3 - - 15 8 - - ESE 1022,6 75 0,0
30.05.2020 22:00:00 16,1 9,0 - - 8 4 - - SE 1022,4 75 0,0
30.05.2020 21:00:00 17,4 9,8 - - 18 10 - - SSE 1021,7 75 0,0
30.05.2020 20:00:00 19,3 11,0 - - 18 10 - - S 1021,4 75 0,0
30.05.2020 19:00:00 18,7 11,8 - - 21 11 - - SW 1021,3 75 0,0
30.05.2020 18:00:00 19,1 12,2 - - 21 11 - - SW 1021,6 60 0,0
30.05.2020 17:00:00 21,3 10,4 - - 31 17 52 28 S 1022,0 75 0,0
30.05.2020 16:00:00 20,0 9,2 - - 39 21 48 26 S 1022,3 75 0,0
30.05.2020 15:00:00 20,3 9,4 - - 35 19 46 25 S 1022,4 75 0,0
30.05.2020 14:00:00 20,4 10,6 - - 34 18 52 28 SSE 1022,6 15 0,0
30.05.2020 13:00:00 19,9 9,9 - - 37 20 48 26 S 1022,6 75 0,0
30.05.2020 12:00:00 18,9 10,0 - - 41 22 52 28 S 1022,6 75 0,0
30.05.2020 11:00:00 18,5 9,4 - - 37 20 48 26 SSE 1022,5 45 0,0
30.05.2020 10:00:00 17,1 8,5 13,2 10,4 35 19 46 25 S 1022,3 65 0,0
30.05.2020 09:00:00 18,3 9,4 - - 31 17 - - SSE 1022,2 65 0,0
30.05.2020 08:00:00 17,4 7,8 - - 35 19 48 26 S 1022,0 75 0,0
30.05.2020 07:00:00 17,0 6,3 - - 31 17 - - S 1022,1 75 0,0
30.05.2020 06:00:00 16,1 5,9 - - 29 16 - - S 1022,0 75 0,0
30.05.2020 05:00:00 16,3 5,9 - - 34 18 - - S 1021,6 75 0,0
30.05.2020 04:00:00 16,6 5,6 - - 31 17 - - S 1021,7 75 0,0
30.05.2020 03:00:00 16,2 6,1 - - 26 14 - - SSE 1021,7 75 0,0
30.05.2020 02:00:00 16,4 6,2 - - 31 17 - - SSE 1021,5 75 0,0
30.05.2020 01:00:00 16,2 5,4 - - 28 15 - - SSE 1021,5 75 0,0
30.05.2020 00:00:00 16,5 4,6 - - 31 17 46 25 S 1021,7 75 0,0
29.05.2020 23:00:00 17,0 4,2 - - 34 18 52 28 SSE 1021,6 75 0,0
29.05.2020 22:00:00 17,1 4,5 - - 35 19 52 28 S 1021,4 75 0,0
29.05.2020 21:00:00 17,8 3,1 - - 39 21 52 28 S 1021,2 75 0,0
29.05.2020 20:00:00 18,9 4,2 - - 42 23 70 38 S 1021,2 75 0,0
29.05.2020 19:00:00 19,8 4,2 - - 50 27 70 38 S 1021,3 75 0,0
29.05.2020 18:00:00 20,8 8,0 - - 52 28 74 40 S 1021,6 75 0,0
29.05.2020 17:00:00 20,6 8,1 - - 55 30 70 38 SSE 1021,9 75 0,0
29.05.2020 16:00:00 20,6 8,7 - - 54 29 70 38 S 1022,1 60 0,0
29.05.2020 15:00:00 20,7 10,5 - - 50 27 67 36 SSE 1022,4 60 0,0
29.05.2020 14:00:00 20,9 11,0 - - 41 22 59 32 SSE 1023,0 55 0,0
29.05.2020 13:00:00 19,9 12,1 - - 39 21 54 29 SSE 1023,6 50 0,0
29.05.2020 12:00:00 19,5 11,7 - - 39 21 52 28 SSE 1024,0 60 0,0
29.05.2020 11:00:00 20,1 11,8 - - 37 20 52 28 S 1024,4 60 0,0
29.05.2020 10:00:00 19,0 11,1 13,0 10,2 37 20 54 29 S 1024,4 55 0,0
29.05.2020 09:00:00 17,9 11,3 - - 29 16 - - S 1024,5 50 0,0
29.05.2020 08:00:00 17,6 11,1 - - 29 16 - - SSE 1024,7 45 0,0
29.05.2020 07:00:00 16,7 11,2 - - 28 15 - - S 1024,7 45 0,0
29.05.2020 06:00:00 16,2 11,0 - - 22 12 - - S 1024,8 45 0,0
29.05.2020 05:00:00 16,6 10,6 - - 34 18 46 25 S 1025,0 50 0,0
29.05.2020 04:00:00 15,6 10,2 - - 24 13 - - SSE 1025,2 60 0,0
29.05.2020 03:00:00 16,2 9,9 - - 31 17 - - SSE 1025,5 75 0,0
29.05.2020 02:00:00 16,3 10,6 - - 22 12 - - SE 1026,0 75 0,0
29.05.2020 01:00:00 16,8 11,6 - - 18 10 - - SSE 1026,5 70 0,0
29.05.2020 00:00:00 16,2 10,8 - - 16 9 - - SSE 1026,8 75 0,0
28.05.2020 23:00:00 16,5 11,0 - - 16 9 - - SE 1027,2 75 0,0
28.05.2020 22:00:00 15,1 11,0 - - 15 8 - - ESE 1027,5 45 0,0
28.05.2020 21:00:00 16,5 11,6 - - 8 4 - - ESE 1027,8 45 0,0
28.05.2020 20:00:00 17,4 12,5 - - 21 11 - - S 1028,1 50 0,0
28.05.2020 19:00:00 18,3 12,7 - - 22 12 - - S 1028,4 70 0,0
28.05.2020 18:00:00 18,4 12,6 - - 21 11 - - S 1029,0 45 0,0
28.05.2020 17:00:00 18,4 13,3 - - 16 9 - - SSW 1029,6 35 0,0
28.05.2020 16:00:00 16,1 12,9 - - 16 9 - - SW 1030,1 30 0,0
28.05.2020 15:00:00 16,6 13,4 - - 18 10 - - SW 1030,7 40 0,0
28.05.2020 14:00:00 15,7 12,9 - - 18 10 - - SW 1031,3 45 0,0
28.05.2020 13:00:00 14,7 11,5 - - 24 13 - - SW 1031,6 50 0,0
28.05.2020 12:00:00 14,1 11,2 - - 26 14 - - SSW 1031,6 55 0,0
28.05.2020 11:00:00 13,6 11,4 - - 22 12 - - SSW 1031,7 35 0,0
28.05.2020 10:00:00 13,3 11,1 12,5 10,0 26 14 - - SSW 1031,8 35 0,0
28.05.2020 09:00:00 12,6 10,8 - - 28 15 - - SSW 1032,1 30 0,0
28.05.2020 08:00:00 12,1 10,9 - - 24 13 - - SSW 1031,8 20 0,0
28.05.2020 07:00:00 11,7 10,7 - - 26 14 - - SSW 1031,4 18 0,0
28.05.2020 06:00:00 11,6 10,4 - - 28 15 - - SSW 1031,3 21 0,0
28.05.2020 05:00:00 11,7 10,1 - - 28 15 - - SSW 1031,4 23 0,0
28.05.2020 04:00:00 11,5 9,8 - - 29 16 - - S 1031,5 25 0,0
28.05.2020 03:00:00 11,7 9,6 - - 31 17 - - SSW 1031,6 24 0,0
28.05.2020 02:00:00 11,9 9,6 - - 34 18 46 25 SSW 1031,9 24 0,0
28.05.2020 01:00:00 11,8 10,3 - - 35 19 46 25 S 1031,9 30 0,0
28.05.2020 00:00:00 11,1 9,9 - - 37 20 50 27 S 1032,2 16 0,2
27.05.2020 23:00:00 10,3 9,6 - - 22 12 - - S 1033,0 26 1,0
27.05.2020 22:00:00 10,2 9,1 - - 18 10 - - S 1033,9 17 1,0
27.05.2020 21:00:00 10,4 7,1 - - 26 14 - - S 1034,1 35 0,2
27.05.2020 20:00:00 10,7 8,1 - - 15 8 - - SSE 1034,2 25 0,4
27.05.2020 19:00:00 11,8 7,9 - - 16 9 - - S 1034,9 22 0,0
27.05.2020 18:00:00 11,7 8,6 - - 16 9 - - SSE 1035,5 20 0,2
27.05.2020 17:00:00 12,8 8,4 - - 22 12 - - SSW 1036,3 19 0,0
27.05.2020 16:00:00 13,0 8,2 - - 26 14 - - SW 1036,6 35 0,0
27.05.2020 15:00:00 13,2 9,4 - - 22 12 - - SW 1036,7 30 0,0
27.05.2020 14:00:00 12,5 7,6 - - 18 10 - - SW 1037,2 35 0,0
27.05.2020 13:00:00 13,0 8,8 - - 16 9 - - SW 1037,4 30 0,0
27.05.2020 12:00:00 12,7 8,5 - - 15 8 - - SW 1037,7 30 0,0

tt = Température de l'air
td = dewpoint
tt -20cm = Température de l'air -20cm
tt -100cm = Température de l'air -100cm
ff = Vitesse du vent
fx = gusts
dd = Direction du vent
ppp = reduced air pressure
vv = visibility
rr = Quantités de précipitations

stations d'obs. à proximité